Torna al catalogo

GLOBALSTAR M071

AttivoComunicazioniLEO
NORAD 31576·PAYLOAD·🇺🇸 United States

Lanciato May 29, 2007 da Baikonur Cosmodrome

Loading…

Prossimi Passaggi (prossime 24 ore)

TLE

AggiornatoSource: Space-Track

Epoca: Sep 14, 2026, 09:51 UTC

1 31576U 07020F   26257.41079536 -.00000166  00000-0 -73607-3 0  9999
2 31576  52.0080  38.0038 0000388  16.2726  17.8452 12.18272037550307

Traccia GLOBALSTAR M071 in tempo reale con AllMySat

Download on the App Store